ETH3721 EHBK-OMSJ

Flight info

Callsign ETH3721
Flight time N/A
Altitude 23000
Route LNO DCT ARCKY L607 ROPUV/N0485F310 L607 UBIDU L984 RUDUS DCT BOMBI T104 WLD M867 RADIZ DCT LBL DCT IDASI DCT POD DCT PINDO UL607 ATV DCT MIL/N0490F330 DCT PAXIS Y707 OBRAN L321 REXUM M872 WEJ DCT HLF DCT MODIV DCT SIBLI DCT GESOR DCT JBL DCT OBTAR DCT TOMSO DCT EMOTA DCT GONVI
Aircraft B77L/H-SDE1E2E3FGHIJ2J3J4J5M1RWXY/LB1D1

Departure

Time N/A
Airport Maastricht Aachen Airport (EHBK)

Arrival

Time 2026-05-08 22:34
Airport Sharjah International Airport (OMSJ)
Time Latitude Longitude Altitude Speed Heading
2026-05-08 21:50 26.72606 51.65750 32810 ft 506 kts 123°
2026-05-08 21:50 26.69488 51.72760 32807 ft 506 kts 123°
2026-05-08 21:51 26.66326 51.79856 32808 ft 507 kts 123°
2026-05-08 21:51 26.63203 51.86855 32803 ft 506 kts 122°
2026-05-08 21:52 26.60052 51.93904 32797 ft 506 kts 123°
2026-05-08 21:52 26.56901 52.00940 32793 ft 506 kts 123°
2026-05-08 21:53 26.53753 52.07960 32781 ft 506 kts 122°
2026-05-08 21:53 26.50598 52.14983 32789 ft 505 kts 122°
2026-05-08 21:54 26.47445 52.21990 32784 ft 505 kts 122°
2026-05-08 21:54 26.44311 52.28942 32777 ft 505 kts 122°
2026-05-08 21:55 26.41151 52.35940 32788 ft 505 kts 122°
2026-05-08 21:56 26.36403 52.46437 32783 ft 505 kts 122°
2026-05-08 21:56 26.33232 52.53432 32775 ft 505 kts 122°
2026-05-08 21:57 26.30065 52.60414 32727 ft 499 kts 122°
2026-05-08 21:57 26.26947 52.67275 32561 ft 494 kts 122°
2026-05-08 21:57 26.25412 52.70646 32397 ft 493 kts 122°
2026-05-08 21:58 26.23853 52.74063 32191 ft 494 kts 122°
2026-05-08 21:58 26.22296 52.77475 31986 ft 494 kts 122°
2026-05-08 21:58 26.20737 52.80889 31785 ft 495 kts 122°
2026-05-08 21:58 26.19178 52.84303 31605 ft 495 kts 122°
2026-05-08 21:59 26.17618 52.87719 31416 ft 495 kts 122°
2026-05-08 21:59 26.16055 52.91136 31221 ft 495 kts 122°
2026-05-08 21:59 26.14489 52.94559 31024 ft 496 kts 122°
2026-05-08 21:59 26.12923 52.97979 30874 ft 495 kts 122°
2026-05-08 22:00 26.11447 53.01447 30804 ft 498 kts 116°
2026-05-08 22:00 26.09396 53.08799 30781 ft 505 kts 105°
2026-05-08 22:01 26.08199 53.16512 30776 ft 507 kts 103°
2026-05-08 22:01 26.07046 53.24212 30755 ft 493 kts 103°
2026-05-08 22:01 26.06481 53.27910 30745 ft 477 kts 103°
2026-05-08 22:02 26.05926 53.31488 30746 ft 462 kts 104°
2026-05-08 22:02 26.05380 53.34957 30745 ft 447 kts 104°
2026-05-08 22:02 26.04848 53.38306 30751 ft 436 kts 104°
2026-05-08 22:02 26.04311 53.41645 30500 ft 444 kts 104°
2026-05-08 22:03 26.03760 53.45047 30105 ft 448 kts 104°
2026-05-08 22:03 26.03218 53.48411 29666 ft 446 kts 104°
2026-05-08 22:03 26.02675 53.51794 29268 ft 441 kts 104°
2026-05-08 22:03 26.02141 53.55134 28926 ft 435 kts 104°
2026-05-08 22:04 26.01614 53.58424 28483 ft 432 kts 104°
2026-05-08 22:04 26.01088 53.61700 28060 ft 429 kts 104°
2026-05-08 22:04 26.00565 53.64952 27636 ft 426 kts 104°
2026-05-08 22:04 26.00044 53.68182 27201 ft 423 kts 104°
2026-05-08 22:05 25.99525 53.71391 26777 ft 421 kts 104°
2026-05-08 22:05 25.99009 53.74583 26349 ft 418 kts 104°
2026-05-08 22:05 25.98494 53.77757 25916 ft 416 kts 103°
2026-05-08 22:05 25.97982 53.80916 25501 ft 414 kts 103°
2026-05-08 22:06 25.97469 53.84069 25054 ft 413 kts 103°
2026-05-08 22:06 25.96959 53.87208 24617 ft 412 kts 103°
2026-05-08 22:06 25.96454 53.90303 24187 ft 411 kts 103°
2026-05-08 22:06 25.95944 53.93429 23749 ft 411 kts 103°
2026-05-08 22:07 25.95433 53.96558 23296 ft 410 kts 103°
2026-05-08 22:07 25.94924 53.99668 22776 ft 410 kts 103°
2026-05-08 22:07 25.94416 54.02774 22317 ft 407 kts 103°
2026-05-08 22:07 25.93909 54.05865 21865 ft 405 kts 103°
2026-05-08 22:08 25.93405 54.08939 21416 ft 403 kts 103°
2026-05-08 22:08 25.92900 54.12005 20978 ft 402 kts 102°
2026-05-08 22:08 25.92400 54.15044 20533 ft 400 kts 102°
2026-05-08 22:08 25.91899 54.18081 20090 ft 399 kts 102°
2026-05-08 22:09 25.91400 54.21107 19651 ft 398 kts 102°
2026-05-08 22:09 25.90901 54.24124 19208 ft 397 kts 102°
2026-05-08 22:09 25.90402 54.27136 18756 ft 396 kts 102°
2026-05-08 22:09 25.89903 54.30151 18304 ft 396 kts 102°
2026-05-08 22:10 25.89403 54.33163 17830 ft 395 kts 102°
2026-05-08 22:10 25.88906 54.36161 17353 ft 394 kts 102°
2026-05-08 22:10 25.88415 54.39110 16907 ft 392 kts 102°
2026-05-08 22:10 25.87796 54.42051 16474 ft 389 kts 109°
2026-05-08 22:11 25.86915 54.44875 16019 ft 386 kts 112°
2026-05-08 22:11 25.85997 54.47658 15605 ft 384 kts 112°
2026-05-08 22:11 25.85081 54.50435 15177 ft 382 kts 112°
2026-05-08 22:11 25.84178 54.53205 14765 ft 381 kts 112°
2026-05-08 22:12 25.83286 54.55970 14333 ft 380 kts 112°
2026-05-08 22:12 25.82403 54.58729 13908 ft 379 kts 112°
2026-05-08 22:12 25.81526 54.61485 13471 ft 378 kts 112°
2026-05-08 22:12 25.80651 54.64234 13013 ft 377 kts 112°
2026-05-08 22:13 25.79780 54.66975 12579 ft 375 kts 112°
2026-05-08 22:13 25.78915 54.69696 12166 ft 373 kts 112°
2026-05-08 22:13 25.78068 54.72362 12003 ft 361 kts 112°
2026-05-08 22:13 25.77254 54.74924 11833 ft 350 kts 112°
2026-05-08 22:14 25.76454 54.77437 11578 ft 339 kts 111°
2026-05-08 22:14 25.75682 54.79862 10972 ft 331 kts 111°
2026-05-08 22:14 25.74906 54.82292 10270 ft 337 kts 111°
2026-05-08 22:14 25.74121 54.84749 9794 ft 338 kts 111°
2026-05-08 22:15 25.73338 54.87201 9394 ft 335 kts 111°
2026-05-08 22:15 25.72563 54.89623 9033 ft 331 kts 111°
2026-05-08 22:15 25.71784 54.92058 9010 ft 338 kts 111°
2026-05-08 22:15 25.70996 54.94519 9001 ft 338 kts 111°
2026-05-08 22:16 25.70220 54.96956 8825 ft 334 kts 111°
2026-05-08 22:16 25.69452 54.99368 8524 ft 329 kts 111°
2026-05-08 22:16 25.68694 55.01747 8262 ft 324 kts 111°
2026-05-08 22:16 25.67881 55.04047 8188 ft 319 kts 118°
2026-05-08 22:17 25.66774 55.06204 8129 ft 324 kts 122°
2026-05-08 22:17 25.65602 55.08330 8077 ft 329 kts 122°
2026-05-08 22:17 25.64430 55.10507 8015 ft 329 kts 122°
2026-05-08 22:17 25.63286 55.12669 7982 ft 320 kts 121°
2026-05-08 22:18 25.62198 55.14759 7884 ft 307 kts 121°
2026-05-08 22:18 25.61155 55.16769 7783 ft 294 kts 120°
2026-05-08 22:18 25.60140 55.18726 7707 ft 294 kts 121°
2026-05-08 22:18 25.59120 55.20692 7645 ft 294 kts 121°
2026-05-08 22:19 25.58100 55.22654 7574 ft 293 kts 121°
2026-05-08 22:19 25.57086 55.24613 7506 ft 293 kts 120°
2026-05-08 22:19 25.56078 55.26568 7433 ft 292 kts 120°
2026-05-08 22:19 25.55072 55.28516 7350 ft 291 kts 120°
2026-05-08 22:20 25.54068 55.30459 7277 ft 290 kts 120°
2026-05-08 22:20 25.53078 55.32368 7248 ft 287 kts 120°
2026-05-08 22:20 25.52077 55.34279 7255 ft 287 kts 120°
2026-05-08 22:20 25.51068 55.36203 7199 ft 290 kts 120°
2026-05-08 22:21 25.50063 55.38118 7066 ft 284 kts 120°
2026-05-08 22:21 25.49085 55.39983 6863 ft 276 kts 120°
2026-05-08 22:21 25.48129 55.41795 6674 ft 265 kts 120°
2026-05-08 22:21 25.47207 55.43487 6609 ft 250 kts 120°
2026-05-08 22:22 25.46320 55.45103 6464 ft 243 kts 120°
2026-05-08 22:22 25.45446 55.46697 6329 ft 241 kts 120°
2026-05-08 22:22 25.44567 55.48284 6228 ft 243 kts 121°
2026-05-08 22:22 25.43644 55.49851 6077 ft 245 kts 122°
2026-05-08 22:23 25.42714 55.51417 5935 ft 247 kts 122°
2026-05-08 22:23 25.41767 55.53012 5774 ft 248 kts 122°
2026-05-08 22:23 25.40824 55.54606 5593 ft 247 kts 122°
2026-05-08 22:23 25.39888 55.56191 5425 ft 245 kts 122°
2026-05-08 22:24 25.38957 55.57764 5250 ft 244 kts 122°
2026-05-08 22:24 25.38037 55.59322 5068 ft 241 kts 121°
2026-05-08 22:24 25.37171 55.60865 4889 ft 231 kts 120°
2026-05-08 22:24 25.36351 55.62349 4675 ft 222 kts 121°
2026-05-08 22:25 25.35544 55.63810 4510 ft 224 kts 121°
2026-05-08 22:25 25.34729 55.65283 4342 ft 225 kts 121°
2026-05-08 22:25 25.33916 55.66755 4201 ft 223 kts 121°
2026-05-08 22:25 25.33107 55.68215 3974 ft 222 kts 121°
2026-05-08 22:26 25.32297 55.69677 3719 ft 223 kts 121°
2026-05-08 22:26 25.31492 55.71128 3421 ft 226 kts 121°
2026-05-08 22:26 25.30674 55.72597 3253 ft 222 kts 122°
2026-05-08 22:26 25.29870 55.74043 3133 ft 220 kts 122°
2026-05-08 22:27 25.29061 55.75479 3073 ft 221 kts 127°
2026-05-08 22:27 25.27897 55.76558 2960 ft 220 kts 163°
2026-05-08 22:27 25.26428 55.76713 2901 ft 210 kts 199°
2026-05-08 22:27 25.25106 55.76101 2885 ft 205 kts 211°
2026-05-08 22:28 25.23836 55.75381 2787 ft 205 kts 212°
2026-05-08 22:28 25.22711 55.74479 2606 ft 195 kts 240°
2026-05-08 22:28 25.22297 55.73116 2555 ft 189 kts 268°
2026-05-08 22:28 25.22256 55.71669 2517 ft 187 kts 271°
2026-05-08 22:29 25.22271 55.70243 2503 ft 188 kts 278°
2026-05-08 22:29 25.22730 55.68909 2517 ft 187 kts 298°
2026-05-08 22:29 25.23359 55.67626 2526 ft 193 kts 299°
2026-05-08 22:29 25.24068 55.66348 2523 ft 196 kts 302°
2026-05-08 22:30 25.24810 55.65123 2489 ft 186 kts 302°
2026-05-08 22:30 25.25534 55.63949 2265 ft 183 kts 303°
2026-05-08 22:30 25.26002 55.63188 2127 ft 179 kts 303°
2026-05-08 22:30 25.26734 55.62100 1860 ft 174 kts 308°
2026-05-08 22:31 25.27485 55.61093 1756 ft 164 kts 307°
2026-05-08 22:31 25.28165 55.60115 1471 ft 154 kts 306°
2026-05-08 22:31 25.28784 55.59190 1296 ft 149 kts 304°
2026-05-08 22:31 25.29366 55.58229 1102 ft 151 kts 302°
2026-05-08 22:32 25.29927 55.57256 978 ft 150 kts 301°
2026-05-08 22:32 25.30506 55.56259 798 ft 155 kts 301°
2026-05-08 22:32 25.31095 55.55274 633 ft 155 kts 300°
2026-05-08 22:32 25.31663 55.54261 390 ft 156 kts 301°
2026-05-08 22:33 25.32248 55.53248 157 ft 154 kts 301°
2026-05-08 22:33 25.32779 55.52310 117 ft 125 kts 302°
2026-05-08 22:33 25.33151 55.51674 119 ft 70 kts 302°
2026-05-08 22:33 25.33394 55.51248 117 ft 62 kts 303°
2026-05-08 22:34 25.33459 55.51070 115 ft 18 kts 263°
2026-05-08 22:34 25.33421 55.50990 116 ft 11 kts 225°
2026-05-08 22:34 25.33360 55.50941 117 ft 11 kts 214°
2026-05-08 22:34 25.33297 55.50896 116 ft 11 kts 211°
2026-05-08 22:35 25.33235 55.50854 117 ft 9 kts 212°
2026-05-08 22:35 25.33178 55.50845 115 ft 8 kts 155°
2026-05-08 22:35 25.33142 55.50888 115 ft 8 kts 126°
2026-05-08 22:35 25.33113 55.50938 115 ft 8 kts 122°
2026-05-08 22:36 25.33084 55.50988 117 ft 8 kts 122°
2026-05-08 22:36 25.33034 55.51076 116 ft 17 kts 122°
2026-05-08 22:36 25.32972 55.51184 116 ft 17 kts 122°
2026-05-08 22:36 25.32921 55.51254 116 ft 10 kts 160°
2026-05-08 22:37 25.32846 55.51216 117 ft 19 kts 213°
2026-05-08 22:37 25.32719 55.51129 115 ft 21 kts 213°
2026-05-08 22:37 25.32638 55.51071 116 ft 13 kts 212°
2026-05-08 22:37 25.32563 55.51019 117 ft 13 kts 212°
2026-05-08 22:38 25.32509 55.50972 115 ft 7 kts 250°
2026-05-08 22:38 25.32527 55.50920 115 ft 7 kts 301°
2026-05-08 22:38 25.32535 55.50905 116 ft 0 kts 301°